This is the latest recevied weather packets stored in our database for station/object EW3591. If no packets are shown the sender has not sent any weather packets the latest 1 day(s).
| Time | Temp. | Humidity | Pressure | Rain* | Wind** | Luminosity | Snow |
|---|---|---|---|---|---|---|---|
| 1778036372 | 8.89° C | 96% | 1008.2 hPa | 0.25 mm | 0 m/s | - | - |
| 1778036252 | 8.89° C | 96% | 1008.2 hPa | 0.25 mm | 0.45 m/s, 223° | - | - |
| 1778036131 | 8.89° C | 96% | 1008.4 hPa | 0.25 mm | 0.45 m/s, 225° | - | - |
| 1778036011 | 8.89° C | 96% | 1008.4 hPa | 0.25 mm | 0.45 m/s, 224° | - | - |
| 1778035891 | 8.89° C | 96% | 1008.2 hPa | 0.25 mm | 0 m/s | - | - |
| 1778035770 | 8.89° C | 96% | 1008.3 hPa | 0.25 mm | 0.45 m/s, 223° | - | - |
| 1778035650 | 8.89° C | 96% | 1008.2 hPa | 0.25 mm | 0.89 m/s, 225° | - | - |
| 1778035530 | 8.89° C | 96% | 1008.3 hPa | 0.25 mm | 0.45 m/s, 225° | - | - |
| 1778035409 | 8.89° C | 96% | 1008.4 hPa | 0.25 mm | 0.45 m/s, 224° | - | - |
| 1778035289 | 8.89° C | 96% | 1008.4 hPa | 0.25 mm | 0 m/s | - | - |
| 1778035169 | 8.89° C | 96% | 1008.5 hPa | 0.25 mm | 0 m/s | - | - |
| 1778035049 | 8.89° C | 96% | 1008.4 hPa | 0.25 mm | 0.45 m/s, 223° | - | - |
| 1778034928 | 8.89° C | 96% | 1008.4 hPa | 0.25 mm | 0.45 m/s, 228° | - | - |
| 1778034808 | 8.89° C | 96% | 1008.4 hPa | 0 mm | 0.45 m/s, 232° | - | - |
| 1778034688 | 8.89° C | 96% | 1008.6 hPa | 0 mm | 0.45 m/s, 232° | - | - |
| 1778034567 | 8.89° C | 96% | 1008.6 hPa | 0 mm | 0.45 m/s, 219° | - | - |
| 1778034447 | 8.89° C | 96% | 1008.5 hPa | 0 mm | 0.45 m/s, 218° | - | - |
| 1778034327 | 8.89° C | 96% | 1008.6 hPa | 0 mm | 0 m/s | - | - |
| 1778034206 | 8.89° C | 96% | 1008.6 hPa | 0 mm | 0 m/s | - | - |
| 1778034086 | 8.89° C | 96% | 1008.5 hPa | 0 mm | 0.45 m/s, 225° | - | - |
| 1778033966 | 8.89° C | 96% | 1008.7 hPa | 0 mm | 0.45 m/s, 227° | - | - |
| 1778033846 | 8.89° C | 96% | 1008.7 hPa | 0 mm | 0.45 m/s, 232° | - | - |
| 1778033725 | 8.89° C | 96% | 1008.6 hPa | 0 mm | 0.45 m/s, 235° | - | - |
| 1778033605 | 8.89° C | 96% | 1008.6 hPa | 0 mm | 0 m/s | - | - |
| 1778033485 | 8.89° C | 96% | 1008.5 hPa | 0 mm | 0.45 m/s, 235° | - | - |
* Rain latest hour (hover to see other rain measurements)
** Current wind speed in m/s (hover to see current wind gust speed)